Location: Starlight Observatory
(38.4029°N, 85.8936°W)
Time: 07:22:24
(UTC-04:00)

Daily predictions for brighter satellites

Satellite Brightness Start Highest point End
(mag) Time Altitude Azimuth Time Altitude Azimuth Time Altitude Azimuth
H-2A R/B 4.2 21:33:07 10° SSE 21:35:07 13° SE 21:38:20 10° ESE
Cosmos 1833 4.3 21:33:37 10° S 21:39:10 56° ESE 21:44:43 10° NNE
USA 229 DEB 3.8 21:32:19 10° SSW 21:39:14 84° ESE 21:46:15 10° NE
USA 229 3.8 21:32:25 10° SSW 21:39:19 84° ESE 21:46:22 10° NE
AVUM R/B 2.3 21:41:07 10° SSW 21:43:23 79° ESE 21:45:51 10° NNE
YAOGAN 11 4.1 21:41:02 10° SSE 21:45:20 87° ENE 21:49:43 10° NNW
H-2A R/B 3.7 21:44:54 10° S 21:48:37 49° W 21:52:19 10° NNW
Cosmos 1939 Rocket 3.3 21:46:22 10° SE 21:50:08 44° ENE 21:53:51 10° N
H-2A R/B 2.5 21:46:10 10° SSE 21:50:32 52° ENE 21:54:56 10° N
ATLAS CENTAUR R/B 3.5 21:47:21 10° WNW 21:50:55 24° WSW 21:54:13 10° SSW
Cosmos 773 Rocket 4.1 21:46:03 10° NNW 21:51:14 66° ENE 21:56:26 10° SSE
CZ-4 DEB 3.5 21:48:27 10° S 21:51:35 53° W 21:54:45 10° NNW
Cosmos 1328 Rocket 3.7 21:48:30 10° N 21:52:58 79° W 21:57:23 10° S
Cosmos 1437 Rocket 2.8 21:49:34 10° N 21:53:21 62° E 21:57:10 10° SSE
COSMOS 2428 4.0 21:51:44 10° N 21:56:29 27° ENE 22:01:14 10° ESE
SPOT 5 3.5 21:53:33 10° SE 21:57:44 37° ENE 22:02:07 10° N
NOSS 3-1 (A) 4.2 21:54:17 10° SSE 21:59:09 28° ESE 22:04:21 10° NE
SJ-11-01 4.4 21:57:32 10° SSE 22:02:15 87° WSW 22:07:01 10° NNW
PSLV R/B 4.4 22:00:36 12° SE 22:02:51 26° ENE 22:05:28 10° NNE
Cosmos 2219 Rocket 4.1 22:01:05 10° NNE 22:04:28 16° NE 22:07:51 10° E
Cosmos 304 Rocket 4.0 22:00:26 10° N 22:05:10 54° ENE 22:09:26 12° SE
Meteor 2-2 Rocket 4.4 21:59:42 10° N 22:05:45 85° E 22:11:47 10° S
Cosmos 1500 Rocket 4.4 22:09:55 10° SSW 22:14:11 53° W 22:18:31 10° N
Cosmos 1437 2.7 22:15:30 10° S 22:18:46 74° E 22:22:03 10° NNE
Cosmos 1328 3.8 22:15:54 10° S 22:19:47 60° E 22:23:42 10° NNE
ATLAS 2AS CENTAUR R/B 4.2 22:18:20 14° SE 22:21:45 19° ESE 22:26:51 10° ENE
Cosmos 1726 3.6 22:18:44 10° NNE 22:21:46 22° ENE 22:23:25 17° ESE
Envisat 3.0 22:19:32 10° SSE 22:24:37 87° WSW 22:29:44 10° NNW
ERS-1 Rocket 3.8 22:20:54 10° S 22:25:45 49° W 22:30:39 10° NNW
Cosmos 2219 3.2 22:22:10 10° SSW 22:27:53 77° ESE 22:33:39 10° NNE
Delta 2 Rocket 3.0 22:26:22 10° WSW 22:29:54 54° S 22:31:53 22° ESE
BREEZE M DEB (TANK) 4.2 22:33:11 10° SW 22:34:26 13° SSW 22:35:24 12° S
Cosmos 2237 Rocket 4.0 22:32:06 10° N 22:36:09 19° NE 22:39:42 12° E
Cosmos 2322 3.9 22:32:47 10° NNW 22:38:30 71° WSW 22:43:02 16° S
SL-23 DEB 3.9 22:33:37 10° NW 22:38:38 71° NE 22:40:32 25° ESE
Cosmos 2322 Rocket 4.2 22:34:28 10° NW 22:38:42 22° W 22:42:56 10° SSW
Cosmos 1271 Rocket 4.1 22:35:48 10° NNE 22:38:55 23° ENE 22:40:05 20° ESE
Cosmos 2112 Rocket 4.0 22:34:18 10° NNW 22:39:33 88° WSW 22:43:24 19° SSE
Cosmos 2151 3.4 22:36:31 10° SSW 22:40:39 60° W 22:44:49 10° N
Cosmos 1703 4.4 22:41:16 24° ESE 22:42:07 26° E 22:45:24 10° NNE
SL-14 R/B 3.5 22:40:06 23° SSE 22:42:16 50° E 22:46:09 10° NNE
Cosmos 1937 Rocket 4.0 22:41:23 20° SSE 22:44:26 38° ESE 22:49:13 10° NE
Meteor 1-4 Rocket 3.8 22:41:13 10° NNE 22:44:30 28° ENE 22:45:29 25° ESE
Cosmos 2242 Rocket 4.4 22:40:49 10° NNE 22:44:56 35° ENE 22:46:44 25° ESE
Terra 3.4 22:43:25 16° E 22:45:25 21° ENE 22:48:57 10° NNE
NOSS 3-1 (C) 3.3 22:39:38 10° SSW 22:45:26 85° ESE 22:51:52 10° NE
Cosmos 2298 Rocket 4.0 22:40:44 10° S 22:46:00 68° ESE 22:51:17 10° NNE
Meteor 1-27 4.3 22:41:20 10° N 22:46:59 66° E 22:50:34 23° SSE
Cosmos 2360 Rocket 2.7 22:42:26 10° NNW 22:47:57 56° WSW 22:52:21 16° S
MetOp-B 4.1 22:44:55 18° SSE 22:49:00 85° WSW 22:54:23 10° NNW
SL-16 R/B 4.4 22:46:18 10° NW 22:50:12 19° W 22:54:05 10° SW
NOAA 11 4.4 22:47:19 23° SE 22:50:32 56° ENE 22:55:52 10° N
Sich 1 3.1 22:48:46 23° SSE 22:51:21 60° E 22:55:42 10° NNE
FALCON 9 R/B 4.4 22:16:48 10° WSW 22:52:32 74° S 23:00:29 10° E
CZ-4 SHROUD 4.1 22:51:29 21° SSW 22:53:13 44° W 22:56:15 10° NNW
USA 245 2.1 22:53:37 62° E 22:53:45 64° ENE 22:56:04 10° N
Cosmos 1633 Rocket 3.1 22:52:39 25° SSE 22:55:02 62° E 22:59:22 10° NNE
DELTA 2 R/B (1) 3.8 22:50:03 10° W 22:55:27 53° SSW 22:58:07 28° SE
Cosmos 2058 3.1 22:52:03 13° SSW 22:55:43 68° W 22:59:48 10° N
OAO 2 Rocket 3.7 22:55:30 10° WSW 23:00:35 46° SSE 23:03:20 25° ESE
Cosmos 1626 3.7 23:01:03 21° E 23:01:03 21° E 23:03:39 10° NE
SL-08 RB Rocket 3.6 23:06:50 36° SSE 23:08:37 72° ENE 23:13:07 10° N
H-2A R/B 2.7 23:08:02 29° ESE 23:10:14 45° ENE 23:15:23 10° N
CZ-4 R/B 3.8 23:05:16 10° NNE 23:10:14 86° ESE 23:13:19 23° SSW
Cosmos 1805 Rocket 4.4 23:06:22 11° SSW 23:10:35 49° W 23:14:55 10° N
CZ-4B R/B 3.9 23:06:44 10° N 23:11:58 67° WNW 23:17:02 10° SSW
Cosmos 2227 Rocket 2.5 23:11:30 31° SSE 23:13:40 46° ESE 23:19:03 10° NE
YAOGAN 6 3.5 23:12:45 26° SSW 23:14:20 42° W 23:17:48 10° NNW
Tiangong 1 1.4 23:13:01 10° W 23:16:05 63° NNW 23:17:13 34° NE
Cosmos 1300 3.4 23:12:32 10° NNW 23:16:16 50° W 23:17:53 29° SSW
SPOT 1/Viking Rocket 3.9 23:19:48 26° S 23:22:36 58° W 23:27:41 10° NNW
Cosmos 1241 Rocket 4.3 23:22:15 20° SSW 23:26:36 66° ESE 23:32:48 10° NE
Cosmos 1898 Rocket 4.0 23:22:20 10° SSW 23:27:25 58° WNW 23:32:34 10° N
Cosmos 2333 Rocket 2.5 23:23:36 10° NNW 23:29:16 57° ENE 23:31:18 38° ESE
SL-16 R/B 3.8 23:25:14 10° N 23:29:42 23° NE 23:32:01 18° E
IGS 5A 3.8 23:29:10 46° E 23:29:43 49° ENE 23:33:45 10° N
Cosmos 1125 Rocket 4.4 23:33:30 32° E 23:33:30 32° E 23:38:08 10° NE
Cosmos 220 Rocket 4.2 23:31:40 28° SSW 23:33:51 69° WNW 23:38:17 10° NNE
Cosmos 1455 2.3 23:35:09 10° N 23:38:49 59° ENE 23:38:49 59° ENE
Nadezhda 1 Rocket 3.9 23:33:54 10° N 23:40:01 81° E 23:42:17 41° SSE
SAR-Lupe-2 3.8 23:40:40 58° NE 23:40:40 58° NE 23:43:59 10° N
Cosmos 2297 Rocket 2.3 23:39:28 45° SSE 23:40:41 54° ESE 23:46:11 10° NNE
COSMOS 2428 3.5 23:35:34 10° NW 23:40:52 42° WSW 23:43:19 28° SSW
ARGOS 3.9 23:41:02 27° SSW 23:43:37 45° W 23:48:47 10° NNW
Cosmos 1470 Rocket 3.6 23:45:42 51° SW 23:46:40 70° W 23:50:59 10° N
Cosmos 1933 Rocket 3.7 23:46:48 50° SSW 23:47:53 72° W 23:52:21 10° N
Cosmos 2219 Rocket 2.2 23:43:26 10° NNW 23:49:02 75° WSW 23:50:35 48° S
NOSS 3-1 (A) 4.5 23:44:01 10° WSW 23:49:39 46° NW 23:55:54 10° NNE
Cosmos 1745 Rocket 4.2 23:47:12 25° SSW 23:50:53 65° W 23:57:03 10° N
Cosmos 1726 4.3 23:54:13 10° NW 23:56:59 20° W 23:58:06 17° WSW
